Content
SEND FEEDBACK

Daily
Averages
Monthly
Summary
United States of America

BATESBURG, SOUTH CAROLINA


Home > North America > United States > South Carolina
Elevation: 65 feet     Latitude: 33 53N     Longitude: 081 33W

WEATHER
 
SELECT A DAY
Number of Records: 132,395;   Date Range: 12/7/08 - 7/24/14
 
SHARE

PRINT THIS DATA

[ ← Previous Day ]
WEATHER ALMANAC - FEBRUARY 5, 2013
[ Next Day → ]
[ °C ]   °F
Weather ElementAverageHighLow
Temperature49.1 °F68 °F (1:15 pm)32 °F (6:55 am)
Dewpoint39.6 °F50 °F (10:35 pm) (7:00 pm)
Humidity74.5 %100 % (6:55 am)43 % (1:15 pm)
Barometer30.03 in30.07 in (7:55 am)29.99 in (3:55 pm)
Wind Speed5.4 mph16.1 mph (11:55 am)
Wind Gust23 mph (1:55 pm)
Weather ElementAverage
Visibility10 mi
Wind DirectionSSE (162.8 °)

Weather ElementTotal
Precipitation---
Heating Degree Days15 (Base 65)
Averaged from 69 records on February 5, 2013
WEATHER CONDITIONS BREAKOUT
WIND DIRECTION BREAKOUT
WEATHER BY HOUR - FEBRUARY 5, 2013
[ °C ]   °F
Local TimeTemperatureDewpointHumidityBarometerVisibilityWind DirectionWind SpeedGust SpeedPrecipitationEventsConditions
12:55 AM37.4 °F33.8 °F87 %30.05 in10.0 miCalmClear
1:15 AM37.4 °F32.0 °F81 %30.04 in10.0 miCalmClear
1:35 AM37.4 °F33.8 °F87 %30.04 in10.0 miCalmClear
1:55 AM37.4 °F33.8 °F87 %30.03 in10.0 miSouth (170°)6.9 mphClear
2:15 AM35.6 °F32.0 °F87 %30.03 in10.0 miSSW (200°)4.6 mphClear
2:35 AM37.4 °F33.8 °F87 %30.03 in10.0 miSouth (190°)4.6 mphClear
2:55 AM37.4 °F33.8 °F87 %30.02 in10.0 miSouth (190°)5.8 mphClear
3:15 AM37.4 °F32.0 °F81 %30.01 in10.0 miSSW (200°)4.6 mphClear
3:35 AM35.6 °F32.0 °F87 %30.02 in10.0 miCalmClear
3:55 AM33.8 °F32.0 °F93 %30.02 in10.0 miCalmClear
4:15 AM33.8 °F32.0 °F93 %30.02 in10.0 miCalmClear
4:35 AM33.8 °F32.0 °F93 %30.03 in10.0 miWSW (240°)3.5 mphClear
4:55 AM33.8 °F32.0 °F93 %30.03 in10.0 miSW (230°)4.6 mphClear
5:15 AM33.8 °F32.0 °F93 %30.02 in10.0 miCalmClear
5:35 AM33.8 °F32.0 °F93 %30.02 in10.0 miCalmClear
5:55 AM33.8 °F32.0 °F93 %30.02 in10.0 miCalmClear
6:15 AM33.8 °F32.0 °F93 %30.03 in10.0 miSW (220°)4.6 mphClear
6:35 AM33.8 °F32.0 °F93 %30.03 in10.0 miCalmClear
6:55 AM32.0 °F32.0 °F100 %30.04 in10.0 miSW (230°)3.5 mphClear
7:15 AM35.6 °F32.0 °F87 %30.04 in10.0 miSW (230°)3.5 mphClear
7:35 AM33.8 °F32.0 °F93 %30.05 in10.0 miSW (230°)5.8 mphClear
7:55 AM35.6 °F33.8 °F93 %30.07 in10.0 miWSW (240°)6.9 mphScattered Clouds
8:15 AM37.4 °F33.8 °F87 %30.07 in10.0 miSW (230°)6.9 mphScattered Clouds
8:35 AM39.2 °F35.6 °F87 %30.06 in10.0 miSW (220°)6.9 mphScattered Clouds
8:55 AM42.8 °F35.6 °F76 %30.05 in10.0 miSW (230°)5.8 mphScattered Clouds
9:15 AM44.6 °F37.4 °F76 %30.06 in10.0 miWSW (250°)8.1 mphScattered Clouds
9:35 AM46.4 °F37.4 °F71 %30.06 in10.0 miSW (230°)8.1 mphScattered Clouds
9:55 AM48.2 °F37.4 °F66 %30.07 in10.0 miWSW (240°)8.1 mphScattered Clouds
10:15 AM50.0 °F37.4 °F62 %30.07 in10.0 miSW (230°)6.9 mphScattered Clouds
10:35 AM53.6 °F39.2 °F58 %30.07 in10.0 miWSW (250°)6.9 mphScattered Clouds
10:55 AM57.2 °F41.0 °F55 %30.06 in10.0 miWSW (250°)10.4 mph16.1 mphClear
11:15 AM59.0 °F41.0 °F51 %30.07 in10.0 miSW (230°)8.1 mphMostly Cloudy
11:35 AM60.8 °F42.8 °F52 %30.06 in10.0 miWSW (250°)12.7 mph17.3 mphMostly Cloudy
11:55 AM62.6 °F44.6 °F52 %30.05 in10.0 miWSW (250°)16.1 mph20.7 mphScattered Clouds
12:15 PM62.6 °F44.6 °F52 %30.04 in10.0 miWSW (240°)10.4 mphMostly Cloudy
12:35 PM64.4 °F44.6 °F49 %30.03 in10.0 miWSW (250°)11.5 mphScattered Clouds
12:55 PM64.4 °F42.8 °F45 %30.02 in10.0 miWSW (250°)12.7 mph18.4 mphMostly Cloudy
1:15 PM68.0 °F44.6 °F43 %30.01 in10.0 miWest (270°)10.4 mph17.3 mphOvercast
1:35 PM66.2 °F44.6 °F46 %30.01 in10.0 miWSW (240°)11.5 mphMostly Cloudy
1:55 PM64.4 °F42.8 °F45 %30.00 in10.0 miWSW (250°)11.5 mph23.0 mphOvercast
2:15 PM64.4 °F44.6 °F49 %30.00 in10.0 miWest (260°)9.2 mphOvercast
2:35 PM64.4 °F44.6 °F49 %30.00 in10.0 miWSW (250°)15.0 mph18.4 mphOvercast
2:55 PM62.6 °F44.6 °F52 %30.00 in10.0 miWest (280°)9.2 mphOvercast
3:15 PM64.4 °F46.4 °F52 %30.00 in10.0 miWSW (250°)9.2 mphOvercast
3:35 PM64.4 °F46.4 °F52 %30.00 in10.0 miWSW (250°)11.5 mphMostly Cloudy
3:55 PM64.4 °F46.4 °F52 %29.99 in10.0 miWest (260°)10.4 mph19.6 mphScattered Clouds
4:15 PM66.2 °F46.4 °F49 %29.99 in10.0 miWSW (240°)10.4 mphScattered Clouds
4:35 PM64.4 °F46.4 °F52 %29.99 in10.0 miWest (260°)12.7 mphMostly Cloudy
4:55 PM64.4 °F46.4 °F52 %29.99 in10.0 miSW (230°)11.5 mphOvercast
5:15 PM62.6 °F46.4 °F55 %30.00 in10.0 miWest (270°)9.2 mphMostly Cloudy
5:35 PM60.8 °F46.4 °F59 %30.00 in10.0 miWest (260°)6.9 mphScattered Clouds
5:55 PM59.0 °F46.4 °F63 %30.00 in10.0 miWSW (250°)4.6 mphClear
6:15 PM57.2 °F46.4 °F67 %30.00 in10.0 miWSW (250°)5.8 mphClear
6:35 PM55.4 °F46.4 °F72 %30.00 in10.0 miWest (260°)3.5 mphClear
6:55 PM55.4 °F46.4 °F72 %30.01 in10.0 miWest (270°)3.5 mphClear
7:15 PM55.4 °F46.4 °F72 %30.01 in10.0 miCalmClear
7:35 PM53.6 °F46.4 °F77 %30.02 in10.0 miCalmClear
7:55 PM53.6 °F46.4 °F77 %30.02 in10.0 miSW (230°)3.5 mphClear
8:15 PM51.8 °F44.6 °F76 %30.03 in10.0 miCalmClear
8:35 PM50.0 °F46.4 °F87 %30.03 in10.0 miCalmClear
9:15 PM46.4 °F44.6 °F93 %30.04 in10.0 miCalmClear
9:35 PM46.4 °F44.6 °F93 %30.04 in10.0 miCalmScattered Clouds
9:55 PM46.4 °F44.6 °F93 %30.05 in10.0 miCalmMostly Cloudy
10:15 PM46.4 °F46.4 °F100 %30.06 in10.0 miCalmRainLight Rain
10:35 PM51.8 °F50.0 °F94 %30.05 in10.0 miCalmMostly Cloudy
10:55 PM46.4 °F46.4 °F100 %30.06 in10.0 miCalmMostly Cloudy
11:15 PM48.2 °F48.2 °F100 %30.05 in10.0 miCalmMostly Cloudy
11:35 PM48.2 °F48.2 °F100 %30.05 in10.0 miCalmOvercast
11:55 PM46.4 °F0.0 °F30.05 in10.0 miSW (230°)3.5 mphMostly Cloudy
Hourly data recorded from KAIK, located miles away from Batesburg, South Carolina







STORIES FROM OUR PARTNERS